Location: La Vergne
(36.0160°N, 86.5820°W)
Time: 21:43:16
(UTC-05:00)

Daily predictions for brighter satellites

Satellite Brightness Start Highest point End
(mag) Time Altitude Azimuth Time Altitude Azimuth Time Altitude Azimuth
Cosmos 1766 Rocket 3.6 20:31:00 10° S 20:35:26 86° E 20:39:51 10° N
ATLAS CENTAUR R/B 1.8 20:31:47 10° NNW 20:36:13 53° ENE 20:40:16 10° SE
Delta 2 Rocket 3.8 20:33:17 10° SW 20:36:29 29° SSE 20:39:30 10° E
CZ-2C R/B 1.9 20:36:56 10° ESE 20:38:02 15° ENE 20:39:10 10° NE
Cosmos 2322 Rocket 2.7 20:35:13 10° N 20:40:36 45° ENE 20:45:57 10° SE
Cosmos 405 Rocket 4.3 20:46:01 10° SSW 20:49:28 37° WNW 20:52:57 10° N
SL-16 R/B 2.6 20:44:22 10° N 20:49:54 51° ENE 20:55:22 10° SE
Cosmos 1980 Rocket 2.9 20:45:21 10° NNW 20:50:53 54° WSW 20:56:24 10° S
Cosmos 2360 Rocket 3.8 20:47:04 10° N 20:51:13 21° ENE 20:55:22 10° ESE
Cosmos 1939 Rocket 3.4 20:48:44 10° SE 20:52:28 40° ENE 20:56:09 10° N
Cosmos 1515 Rocket 4.3 20:48:52 10° N 20:52:59 36° E 20:56:54 11° SE
AVUM R/B 4.1 20:52:34 14° SE 20:53:20 16° ESE 20:54:52 10° ENE
In-Cosmos 22 4.3 20:49:12 10° S 20:54:53 68° E 21:00:37 10° NNE
H-2A R/B 2.5 20:56:09 10° SSW 20:56:54 11° S 20:57:30 10° SSE
Cosmos 1553 Rocket 4.1 20:53:45 10° N 21:00:08 67° E 21:06:24 10° SSE
Nimbus 7 Rocket 4.5 20:55:04 10° NNE 21:00:50 57° ESE 21:06:34 10° S
USA 229 DEB 3.7 20:54:54 10° SSW 21:01:44 68° ESE 21:08:40 10° NE
USA 229 3.7 20:55:01 10° SSW 21:01:51 67° ESE 21:08:46 10° NE
Cosmos 540 Rocket 4.0 20:58:02 10° NNW 21:03:07 58° WSW 21:08:09 10° S
Cosmos 332 Rocket 4.3 21:05:14 10° NNW 21:10:00 60° WSW 21:14:46 10° S
Cosmos 2151 3.9 21:10:12 15° SE 21:12:55 30° E 21:16:34 10° NNE
Cosmos 1674 3.1 21:09:53 13° SSE 21:13:04 41° E 21:16:43 10° NNE
CZ-4 SHROUD 4.0 21:14:00 20° SE 21:15:39 35° ENE 21:18:33 10° N
Cosmos 1833 4.3 21:10:56 10° S 21:16:32 59° ESE 21:22:07 10° NNE
Cosmos 968 Rocket 4.1 21:12:57 10° SSW 21:18:03 60° WNW 21:23:13 10° N
Cosmos 1437 Rocket 2.9 21:14:28 10° N 21:18:11 50° E 21:20:37 20° SSE
GPS 2-04 Rocket1 3.4 21:17:23 10° W 21:21:33 44° SSW 21:23:58 22° SE
Cosmos 1151 Rocket 3.4 21:18:53 10° N 21:23:01 44° E 21:25:31 21° SE
Meteor 1-21 Rocket 4.4 21:21:21 10° SSW 21:26:53 73° W 21:32:25 10° N
COSMOS 2428 4.2 21:29:12 10° N 21:33:33 22° ENE 21:36:34 15° E
Envisat 3.1 21:30:37 14° S 21:35:00 78° WSW 21:40:07 10° NNW
H-2A R/B 2.8 21:31:03 11° S 21:35:18 54° W 21:39:46 10° NNW
Cosmos 1328 4.1 21:34:24 26° SSE 21:36:15 46° E 21:40:03 10° NNE
DELTA 2 R/B (1) 3.8 21:35:55 10° WNW 21:41:27 67° N 21:45:57 16° E
Cosmos 2058 3.4 21:42:56 31° SE 21:44:11 41° E 21:48:03 10° NNE
ERS-1 Rocket 4.4 21:40:08 10° SSW 21:44:41 34° W 21:49:16 10° NNW
Cosmos 371 Rocket 4.5 21:42:02 10° NW 21:46:28 38° WSW 21:50:24 13° SSW
YAOGAN 6 2.6 21:46:03 37° SE 21:47:21 66° ENE 21:50:57 10° N
SPOT 5 2.9 21:45:55 21° S 21:48:51 70° WSW 21:53:32 10° NNW
Cosmos 1437 2.8 21:52:16 33° SSW 21:53:35 81° W 21:56:53 10° N
Cosmos 2219 Rocket 4.1 21:50:45 10° NNE 21:54:08 16° NE 21:56:41 12° E
Cosmos 405 3.1 21:50:47 10° NNW 21:54:24 72° W 21:55:47 35° S
MetOp-A 4.2 21:54:51 23° S 21:58:14 76° WSW 22:03:37 10° NNW
ARGOS 3.3 21:55:49 31° SE 21:58:21 61° ENE 22:03:40 10° N
H-2A R/B 3.1 22:00:41 26° ESE 22:02:26 33° ENE 22:07:12 10° N
SL-14 R/B 3.5 22:05:20 46° ESE 22:05:35 47° E 22:09:25 10° NNE
Cosmos 2219 3.1 22:01:49 10° SSW 22:07:31 85° ESE 22:13:17 10° NNE
NOSS 3-1 (C) 3.2 22:04:05 10° SSW 22:09:47 68° ESE 22:16:04 10° NE
SL-08 RB Rocket 3.7 22:08:39 45° SE 22:09:50 65° ENE 22:14:17 10° N
Meteor 1-27 4.3 22:04:57 10° N 22:10:35 59° E 22:12:32 38° SE
SPOT 1/Viking Rocket 3.6 22:12:06 34° S 22:14:23 77° WSW 22:19:33 10° NNW
ATLAS CENTAUR R/B 4.0 22:13:04 10° W 22:14:40 12° WSW 22:16:13 10° SW
Cosmos 1271 Rocket 4.1 22:11:55 10° NNE 22:14:50 26° ENE 22:14:50 26° ENE
Cosmos 2242 Rocket 4.3 22:12:04 10° N 22:16:13 37° E 22:16:33 36° E
DELTA 2 DEB (DPAF) 4.3 22:16:07 48° ESE 22:16:59 58° ENE 22:21:25 10° N
Cosmos 2322 3.7 22:12:55 10° NNW 22:18:39 77° WSW 22:20:54 38° S
Delta 2 Rocket 3.3 22:15:18 10° WSW 22:17:57 49° WSW 22:17:57 49° WSW
OE (NEXTSAT) 4.3 22:15:16 10° WNW 22:18:48 86° W 22:18:48 86° W
Cosmos 2237 Rocket 4.0 22:17:22 10° NNE 22:21:12 18° NE 22:23:15 15° E
Cosmos 1726 2.3 22:18:54 10° N 22:22:28 57° ENE 22:22:28 57° ENE
Cosmos 1680 Rocket 3.6 22:17:49 10° NNW 22:23:02 70° WSW 22:24:52 40° S
Cosmos 2322 Rocket 4.2 22:20:10 10° NW 22:24:15 21° W 22:28:11 10° SSW
USA 245 4.0 22:26:25 32° WNW 22:26:25 32° WNW 22:28:20 10° NNW
Iridium 2 4.5 22:28:43 39° ENE 22:28:43 39° ENE 22:31:42 10° NNE
Cosmos 304 Rocket 4.3 22:26:54 10° NNW 22:31:34 51° WSW 22:32:54 39° SSW
Cosmos 2150 Rocket 4.0 22:31:22 42° S 22:33:15 82° ESE 22:38:44 10° NNE
NOAA 11 4.3 22:31:17 39° S 22:33:17 67° WSW 22:38:43 10° NNW
SL-16 R/B 4.3 22:29:42 10° WNW 22:33:31 19° W 22:37:15 10° SW
Cosmos 1898 Rocket 3.3 22:33:17 48° S 22:34:45 82° ESE 22:39:58 10° NNE
Cosmos 2360 Rocket 2.7 22:30:02 10° NNW 22:35:30 52° WSW 22:37:27 36° SSW
Landsat 7 3.7 22:35:01 62° SSE 22:35:50 87° ENE 22:40:36 10° NNW
Meteor 1-11 4.5 22:33:41 27° SSW 22:36:53 68° W 22:42:37 10° N
CARTOSAT-1 3.6 22:37:19 64° E 22:37:26 64° ENE 22:41:43 10° N
DMSP B5D2-2 3.9 22:36:22 10° NNE 22:41:36 74° ESE 22:42:27 60° SSE
Cosmos 1633 Rocket 3.2 22:42:16 57° SW 22:42:57 67° W 22:47:20 10° N
Cosmos 858 Rocket 4.4 22:42:00 52° SSW 22:43:19 89° ESE 22:48:34 10° NNE
Sich 1 3.4 22:42:31 50° SW 22:43:23 62° W 22:47:47 10° N
Spot 4 4.0 22:44:36 55° E 22:44:55 57° ENE 22:49:40 10° N
Terra 1.6 22:51:23 79° SSE 22:51:41 88° E 22:56:28 10° NNW
Cosmos 292 Rocket 3.9 22:49:41 10° N 22:54:22 61° ENE 22:54:22 61° ENE
Cosmos 1241 Rocket 4.4 22:56:51 57° SE 22:57:13 58° ESE 23:03:19 10° NE
Cosmos 2227 Rocket 2.3 22:57:46 55° E 22:57:46 55° E 23:03:07 10° NNE
Cosmos 1626 3.6 22:59:43 32° NNE 22:59:43 32° NNE 23:01:56 10° NNE
Meteor 2-10 4.1 22:53:21 10° N 22:59:04 81° E 22:59:52 67° SSE
SeaSat 1 3.8 22:58:28 26° ENE 22:59:11 27° NE 23:03:17 10° N
Meteor 1-4 Rocket 3.4 22:55:36 10° NNW 22:58:33 50° NNW 22:58:33 50° NNW
Cosmos 1300 4.2 22:56:46 10° NNW 23:00:09 30° W 23:00:11 30° W
USA 32 4.3 23:00:28 10° NNW 23:05:39 59° W 23:06:29 52° SW
Cosmos 2333 Rocket 2.7 23:00:58 10° N 23:06:32 48° ENE 23:07:11 46° E
Nadezhda 1 Rocket 3.8 23:05:26 10° N 23:11:32 90° E 23:12:27 67° S
NOSS 3-1 (A) 4.0 23:07:22 15° SW 23:12:10 55° NW 23:18:28 10° NNE
SL-16 R/B 3.9 23:08:12 10° N 23:12:25 21° ENE 23:13:41 19° ENE
Lacrosse 4 Rocket 4.1 23:12:18 10° NNE 23:13:55 12° NE 23:14:35 11° ENE
Cosmos 1869 4.4 23:10:36 10° N 23:13:24 40° NNE 23:13:24 40° NNE
COSMOS 2428 3.2 23:12:36 10° NNW 23:18:03 48° WSW 23:18:35 46° SW
Cosmos 1745 Rocket 4.4 23:17:11 40° SW 23:19:12 56° W 23:25:19 10° N
Cosmos 1455 3.5 23:19:31 10° N 23:21:56 38° NNW 23:21:56 38° NNW
Cosmos 2297 Rocket 2.3 23:25:45 62° ENE 23:25:45 62° ENE 23:30:48 10° NNE
Cosmos 1709 Rocket 3.8 23:27:28 72° ESE 23:27:45 73° E 23:33:50 10° N
DELTA 2 R/B (1) 4.1 23:22:29 10° WNW 23:26:42 47° WSW 23:26:42 47° WSW
ATLAS 2AS CENTAUR R/B 2.8 23:32:38 57° SSW 23:34:25 82° ESE 23:42:26 10° NNE
GEOS 3 Rocket 4.4 23:35:40 41° ENE 23:36:13 42° NE 23:41:05 10° NNW
Cosmos 2219 Rocket 2.2 23:33:02 10° NNW 23:38:23 67° W 23:38:23 67° W
COSMOS 2455 3.8 23:35:38 10° N 23:41:10 36° NE 23:42:06 34° ENE
H-2A R/B 3.5 23:41:19 27° WSW 23:41:47 27° W 23:46:20 10° NW
Cosmos 2292 Rocket 4.4 23:41:35 75° ESE 23:41:49 76° E 23:49:15 10° N
Cosmos 2181 Rocket 3.9 23:44:10 10° N 23:50:34 82° E 23:50:50 80° ESE
Cosmos 1980 3.8 23:46:38 10° NNW 23:51:50 69° WNW 23:51:50 69° WNW
